| time (UTC) | temp C | wind direction | speed KPH | gust KPH | rain 1hr cm | rain 24hr cm | rain mn cm | humidity % | barometer mb |
| 20260901211036 | 22 | 0.0 | 0.0 | 0.00 | 0.20 | 0.10 | 52 | 1020.8 | |
| 20260901210016 | 24 | 0.0 | 0.0 | 0.00 | 0.20 | 0.10 | 47 | 1021.2 | |
| 20260901205018 | 25 | 0.0 | 1.6 | 0.03 | 0.20 | 0.10 | 47 | 1021.5 | |
| 20260901204016 | 26 | 0.0 | 0.0 | 0.03 | 0.20 | 0.10 | 45 | 1022.1 | |
| 20260901203016 | 26 | 0.0 | 0.0 | 0.03 | 0.23 | 0.10 | 46 | 1022.1 | |
| 20260901202016 | 26 | 0.0 | 0.0 | 0.03 | 0.23 | 0.10 | 46 | 1022.4 | |
| 20260901201016 | 26 | 0.0 | 0.0 | 0.03 | 0.23 | 0.10 | 47 | 1022.7 | |
| 20260901200016 | 26 | 0.0 | 0.0 | 0.03 | 0.23 | 0.10 | 44 | 1023.0 | |
| 20260901195036 | 26 | 0.0 | 0.0 | 0.00 | 0.20 | 0.08 | 46 | 1023.1 | |
| 20260901194017 | 26 | 0.0 | 0.0 | 0.00 | 0.20 | 0.08 | 44 | 1023.3 | |
| 20260901193016 | 26 | 0.0 | 0.0 | 0.00 | 0.23 | 0.08 | 45 | 1023.4 | |
| 20260901191016 | 25 | 0.0 | 0.0 | 0.00 | 0.23 | 0.08 | 47 | 1023.4 | |
| 20260901190016 | 25 | 0.0 | 0.0 | 0.00 | 0.23 | 0.08 | 48 | 1023.5 | |
| 20260901185037 | 24 | 0.0 | 0.0 | 0.00 | 0.23 | 0.08 | 49 | 1023.2 | |
| 20260901184036 | 24 | 0.0 | 0.0 | 0.00 | 0.23 | 0.08 | 49 | 1023.2 | |
| 20260901183036 | 24 | 0.0 | 0.0 | 0.00 | 0.23 | 0.08 | 50 | 1023.3 | |
| 20260901182016 | 24 | 0.0 | 0.0 | 0.00 | 0.23 | 0.08 | 50 | 1023.5 | |
| 20260901181016 | 24 | 0.0 | 0.0 | 0.00 | 0.23 | 0.08 | 51 | 1023.7 | |
| 20260901180015 | 23 | 0.0 | 0.0 | 0.00 | 0.23 | 0.08 | 53 | 1023.9 | |
| 20260901175016 | 23 | 0.0 | 0.0 | 0.03 | 0.25 | 0.08 | 54 | 1023.5 | |
| 20260901174018 | 23 | 0.0 | 0.0 | 0.03 | 0.25 | 0.08 | 52 | 1023.5 | |
| 20260901173016 | 22 | 0.0 | 0.0 | 0.03 | 0.25 | 0.08 | 53 | 1023.6 | |
| 20260901172015 | 22 | 0.0 | 0.0 | 0.03 | 0.28 | 0.08 | 55 | 1023.8 | |
| 20260901171015 | 22 | 0.0 | 0.0 | 0.03 | 0.28 | 0.08 | 56 | 1023.9 | |
| 20260901170016 | 22 | 0.0 | 0.0 | 0.03 | 0.28 | 0.08 | 55 | 1023.8 | |
| 20260901165056 | 22 | 0.0 | 0.0 | 0.00 | 0.25 | 0.05 | 57 | 1023.9 | |
| 20260901164016 | 22 | 0.0 | 0.0 | 0.00 | 0.25 | 0.05 | 56 | 1023.5 | |
| 20260901163037 | 21 | 0.0 | 0.0 | 0.00 | 0.25 | 0.05 | 59 | 1023.6 | |
| 20260901162015 | 21 | 0.0 | 0.0 | 0.00 | 0.28 | 0.05 | 61 | 1023.1 | |
| 20260901161056 | 20 | 0.0 | 0.0 | 0.00 | 0.28 | 0.05 | 61 | 1023.1 | |
| 20260901160056 | 21 | 0.0 | 1.6 | 0.00 | 0.28 | 0.05 | 59 | 1023.1 | |
| 20260901155035 | 20 | 225 | 4.8 | 9.7 | 0.00 | 0.28 | 0.05 | 64 | 1022.7 |
| 20260901154036 | 20 | 225 | 3.2 | 11.3 | 0.00 | 0.28 | 0.05 | 66 | 1022.7 |
| 20260901153015 | 19 | 225 | 4.8 | 9.7 | 0.03 | 0.30 | 0.05 | 69 | 1022.3 |
| 20260901152015 | 18 | 225 | 3.2 | 11.3 | 0.03 | 0.30 | 0.05 | 69 | 1022.3 |
| 20260901151035 | 18 | 225 | 4.8 | 11.3 | 0.03 | 0.30 | 0.05 | 71 | 1022.4 |
| 20260901150035 | 18 | 225 | 6.4 | 14.5 | 0.03 | 0.30 | 0.05 | 72 | 1022.4 |
| 20260901145015 | 18 | 225 | 9.7 | 16.1 | 0.03 | 0.30 | 0.05 | 73 | 1022.3 |
| 20260901144015 | 17 | 225 | 9.7 | 14.5 | 0.03 | 0.30 | 0.05 | 75 | 1021.9 |
| 20260901143016 | 17 | 225 | 9.7 | 14.5 | 0.00 | 0.30 | 0.05 | 77 | 1021.9 |
| 20260901142015 | 17 | 225 | 8.0 | 16.1 | 0.00 | 0.30 | 0.05 | 78 | 1022.0 |
| 20260901141017 | 16 | 225 | 6.4 | 12.9 | 0.00 | 0.30 | 0.05 | 79 | 1021.5 |
| 20260901140017 | 16 | 225 | 6.4 | 11.3 | 0.00 | 0.30 | 0.05 | 81 | 1021.4 |
| 20260901135017 | 16 | 225 | 9.7 | 14.5 | 0.00 | 0.30 | 0.05 | 81 | 1021.1 |
| 20260901134017 | 16 | 225 | 9.7 | 14.5 | 0.00 | 0.33 | 0.05 | 83 | 1021.0 |
| 20260901133018 | 15 | 225 | 9.7 | 16.1 | 0.00 | 0.33 | 0.05 | 84 | 1020.5 |
| 20260901132017 | 15 | 225 | 12.9 | 17.7 | 0.00 | 0.33 | 0.05 | 85 | 1020.3 |
| 20260901131017 | 15 | 225 | 11.3 | 17.7 | 0.00 | 0.33 | 0.05 | 85 | 1020.2 |
| 20260901130017 | 15 | 225 | 9.7 | 14.5 | 0.00 | 0.33 | 0.05 | 85 | 1020.2 |
| 20260901125018 | 16 | 225 | 9.7 | 16.1 | 0.00 | 0.33 | 0.05 | 85 | 1020.5 |
| 20260901124017 | 16 | 225 | 11.3 | 17.7 | 0.00 | 0.33 | 0.05 | 84 | 1020.4 |
| 20260901123017 | 16 | 225 | 8.0 | 12.9 | 0.00 | 0.33 | 0.05 | 84 | 1020.3 |
| 20260901122017 | 16 | 225 | 8.0 | 11.3 | 0.00 | 0.33 | 0.05 | 84 | 1020.2 |
| 20260901121037 | 16 | 225 | 4.8 | 11.3 | 0.03 | 0.33 | 0.05 | 85 | 1020.3 |
| 20260901120017 | 16 | 225 | 1.6 | 8.0 | 0.03 | 0.33 | 0.05 | 85 | 1020.1 |
| 20260901115017 | 16 | 225 | 1.6 | 6.4 | 0.03 | 0.36 | 0.05 | 86 | 1020.2 |
| 20260901114017 | 16 | 225 | 1.6 | 6.4 | 0.03 | 0.36 | 0.05 | 86 | 1020.2 |
| 20260901113018 | 16 | 225 | 3.2 | 8.0 | 0.03 | 0.36 | 0.05 | 87 | 1020.2 |
| 20260901112018 | 16 | 225 | 3.2 | 9.7 | 0.03 | 0.36 | 0.05 | 87 | 1020.0 |
| 20260901111017 | 16 | 225 | 3.2 | 9.7 | 0.00 | 0.33 | 0.03 | 86 | 1019.8 |
| 20260901110017 | 16 | 225 | 4.8 | 9.7 | 0.00 | 0.33 | 0.03 | 86 | 1020.0 |
| 20260901105016 | 16 | 225 | 4.8 | 9.7 | 0.00 | 0.36 | 0.03 | 86 | 1020.1 |
| 20260901104016 | 16 | 225 | 8.0 | 11.3 | 0.00 | 0.36 | 0.03 | 86 | 1020.1 |
| 20260901103036 | 16 | 225 | 8.0 | 11.3 | 0.00 | 0.36 | 0.03 | 85 | 1020.0 |
| 20260901102016 | 16 | 225 | 8.0 | 14.5 | 0.00 | 0.36 | 0.03 | 85 | 1020.0 |
| 20260901101058 | 16 | 225 | 8.0 | 12.9 | 0.00 | 0.36 | 0.03 | 84 | 1020.1 |
| 20260901100016 | 16 | 225 | 6.4 | 11.3 | 0.00 | 0.36 | 0.03 | 83 | 1020.1 |
| 20260901095017 | 16 | 225 | 8.0 | 12.9 | 0.00 | 0.38 | 0.03 | 84 | 1020.1 |
| 20260901094016 | 16 | 225 | 6.4 | 9.7 | 0.00 | 0.38 | 0.03 | 84 | 1020.1 |
| 20260901093018 | 16 | 225 | 6.4 | 11.3 | 0.00 | 0.38 | 0.03 | 82 | 1020.1 |
| 20260901092036 | 16 | 225 | 8.0 | 11.3 | 0.00 | 0.38 | 0.03 | 83 | 1020.0 |
| 20260901091016 | 16 | 225 | 8.0 | 9.7 | 0.03 | 0.38 | 0.03 | 83 | 1020.0 |
| 20260901090016 | 16 | 225 | 4.8 | 9.7 | 0.03 | 0.41 | 0.03 | 84 | 1020.1 |
| 20260901085016 | 16 | 225 | 8.0 | 9.7 | 0.03 | 0.41 | 0.03 | 84 | 1020.3 |
| 20260901084016 | 16 | 225 | 3.2 | 8.0 | 0.03 | 0.41 | 0.03 | 83 | 1020.4 |
| 20260901083017 | 16 | 225 | 3.2 | 6.4 | 0.03 | 0.41 | 0.03 | 84 | 1020.6 |
| 20260901082017 | 16 | 225 | 3.2 | 8.0 | 0.03 | 0.41 | 0.03 | 83 | 1020.6 |
| 20260901081016 | 16 | 0.0 | 3.2 | 0.00 | 0.41 | 0.00 | 83 | 1020.5 | |
| 20260901080017 | 16 | 0.0 | 3.2 | 0.00 | 0.41 | 0.00 | 83 | 1020.6 | |
| 20260901075016 | 16 | 225 | 6.4 | 11.3 | 0.00 | 0.41 | 0.00 | 83 | 1020.6 |
| 20260901074016 | 16 | 225 | 4.8 | 9.7 | 0.00 | 0.41 | 0.00 | 84 | 1020.7 |
| 20260901073016 | 16 | 0.0 | 0.0 | 0.00 | 0.43 | 0.00 | 84 | 1020.7 | |
| 20260901072016 | 16 | 0.0 | 0.0 | 0.00 | 0.43 | 0.00 | 83 | 1020.9 | |
| 20260901071036 | 16 | 0.0 | 1.6 | 0.00 | 0.43 | 0.00 | 83 | 1020.9 | |
| 20260901070016 | 16 | 225 | 1.6 | 4.8 | 0.00 | 0.43 | 0.00 | 82 | 1020.8 |
| 20260901065016 | 16 | 225 | 6.4 | 14.5 | 0.00 | 0.43 | 0.00 | 82 | 1020.9 |
| 20260901064057 | 16 | 225 | 8.0 | 14.5 | 0.00 | 0.43 | 0.00 | 81 | 1020.8 |
| 20260901063016 | 16 | 225 | 3.2 | 12.9 | 0.00 | 0.43 | 0.00 | 82 | 1021.0 |
| 20260901062015 | 16 | 225 | 1.6 | 3.2 | 0.03 | 0.43 | 0.00 | 83 | 1020.9 |
| 20260901061015 | 16 | 225 | 4.8 | 9.7 | 0.03 | 0.43 | 0.00 | 83 | 1021.1 |
| 20260901060016 | 16 | 225 | 8.0 | 12.9 | 0.03 | 0.46 | 0.46 | 82 | 1021.1 |
| 20260901055016 | 16 | 225 | 9.7 | 16.1 | 0.03 | 0.46 | 0.46 | 83 | 1021.0 |
| 20260901054036 | 16 | 225 | 9.7 | 14.5 | 0.03 | 0.46 | 0.46 | 83 | 1021.0 |
| 20260901053017 | 16 | 225 | 11.3 | 17.7 | 0.03 | 0.48 | 0.46 | 83 | 1021.1 |
| 20260901052016 | 16 | 225 | 14.5 | 22.5 | 0.00 | 0.46 | 0.43 | 83 | 1021.1 |
| 20260901051016 | 16 | 225 | 12.9 | 20.9 | 0.00 | 0.46 | 0.43 | 82 | 1021.0 |
| 20260901050016 | 16 | 225 | 11.3 | 17.7 | 0.00 | 0.46 | 0.43 | 82 | 1021.1 |
| 20260901045036 | 16 | 225 | 12.9 | 25.7 | 0.00 | 0.48 | 0.43 | 81 | 1021.1 |
| 20260901044017 | 16 | 225 | 12.9 | 22.5 | 0.00 | 0.48 | 0.43 | 82 | 1021.0 |
| 20260901043016 | 16 | 225 | 12.9 | 22.5 | 0.00 | 0.48 | 0.43 | 82 | 1021.0 |
| 20260901042016 | 16 | 225 | 12.9 | 24.1 | 0.03 | 0.48 | 0.43 | 83 | 1020.9 |
| 20260901041016 | 16 | 225 | 12.9 | 17.7 | 0.03 | 0.51 | 0.43 | 82 | 1020.9 |
| 20260901040016 | 16 | 203 | 12.9 | 24.1 | 0.03 | 0.51 | 0.43 | 80 | 1020.8 |
| 20260901035037 | 17 | 203 | 11.3 | 17.7 | 0.03 | 0.51 | 0.43 | 83 | 1021.4 |
| 20260901034016 | 17 | 203 | 14.5 | 24.1 | 0.03 | 0.51 | 0.43 | 80 | 1021.1 |
| 20260901033015 | 17 | 158 | 11.3 | 20.9 | 0.03 | 0.51 | 0.43 | 83 | 1021.1 |
| 20260901032015 | 17 | 158 | 9.7 | 17.7 | 0.00 | 0.51 | 0.43 | 83 | 1021.1 |
| 20260901031016 | 16 | 135 | 8.0 | 14.5 | 0.00 | 0.51 | 0.43 | 87 | 1020.7 |
| 20260901030016 | 16 | 135 | 6.4 | 12.9 | 0.00 | 0.51 | 0.43 | 87 | 1020.6 |
| 20260901025016 | 16 | 135 | 11.3 | 16.1 | 0.00 | 0.51 | 0.43 | 86 | 1020.5 |
| 20260901024016 | 17 | 135 | 11.3 | 17.7 | 0.00 | 0.51 | 0.43 | 82 | 1020.9 |
| 20260901023015 | 17 | 135 | 9.7 | 19.3 | 0.00 | 0.53 | 0.43 | 80 | 1020.6 |
| 20260901022036 | 17 | 135 | 14.5 | 19.3 | 0.00 | 0.53 | 0.43 | 78 | 1020.6 |
| 20260901021015 | 18 | 135 | 16.1 | 22.5 | 0.00 | 0.53 | 0.43 | 72 | 1020.7 |
| 20260901020015 | 19 | 135 | 11.3 | 19.3 | 0.00 | 0.53 | 0.43 | 67 | 1020.9 |
| 20260901015056 | 19 | 135 | 14.5 | 19.3 | 0.03 | 0.56 | 0.43 | 66 | 1020.9 |
| 20260901014015 | 20 | 158 | 14.5 | 20.9 | 0.03 | 0.56 | 0.43 | 64 | 1020.6 |
| 20260901013015 | 20 | 158 | 11.3 | 20.9 | 0.03 | 0.56 | 0.43 | 59 | 1020.1 |
| 20260901012035 | 19 | 158 | 14.5 | 24.1 | 0.03 | 0.58 | 0.43 | 62 | 1020.2 |
| 20260901011017 | 19 | 225 | 12.9 | 37.0 | 0.03 | 0.58 | 0.43 | 66 | 1020.2 |
| 20260901010015 | 20 | 225 | 11.3 | 22.5 | 0.03 | 0.61 | 0.43 | 66 | 1019.3 |
| 20260901005015 | 20 | 225 | 14.5 | 30.6 | 0.00 | 0.58 | 0.41 | 64 | 1019.2 |
| 20260901004015 | 20 | 248 | 20.9 | 37.0 | 0.00 | 0.58 | 0.41 | 62 | 1019.5 |
| 20260901003015 | 20 | 248 | 4.8 | 29.0 | 0.03 | 0.61 | 0.41 | 59 | 1019.4 |
| 20260901002015 | 21 | 0.0 | 0.0 | 0.03 | 0.61 | 0.41 | 59 | 1019.3 | |
| 20260901001015 | 21 | 0.0 | 0.0 | 0.03 | 0.61 | 0.41 | 60 | 1019.3 | |
| 20260901000016 | 21 | 0.0 | 0.0 | 0.03 | 0.61 | 0.41 | 59 | 1019.4 | |
| 20260831235015 | 21 | 0.0 | 0.0 | 0.03 | 0.61 | 0.41 | 57 | 1019.8 | |
| 20260831234017 | 22 | 0.0 | 0.0 | 0.03 | 0.64 | 0.41 | 55 | 1019.7 | |
| 20260831233035 | 22 | 0.0 | 0.0 | 0.00 | 0.61 | 0.38 | 54 | 1019.8 | |
| 20260831232137 | 22 | 0.0 | 0.0 | 0.00 | 0.64 | 0.38 | 56 | 1019.7 |